LHA249 KBZN-KBFI

Flight info

Callsign LHA249
Flight time 1h 17m
Altitude 38000
Route HIA DCT MLP
Aircraft A20N/M-SDE1E2FGIJ1RWYZE3/S

Departure

Time 2026-04-30 18:21
Airport Bozeman Yellowstone International Airport (KBZN)

Arrival

Time 2026-04-30 19:39
Airport King County International Airport - Boeing Field (KBFI)
Time Latitude Longitude Altitude Speed Heading
2026-04-30 18:01 45.77798 -111.15940 4463 ft 0 kts 263°
2026-04-30 18:15 45.77800 -111.15915 4464 ft 2 kts 262°
2026-04-30 18:15 45.77797 -111.15852 4464 ft 2 kts 307°
2026-04-30 18:16 45.77790 -111.15841 4464 ft 0 kts 315°
2026-04-30 18:18 45.77799 -111.15855 4464 ft 7 kts 314°
2026-04-30 18:18 45.77859 -111.15939 4463 ft 14 kts 317°
2026-04-30 18:18 45.77935 -111.16039 4461 ft 15 kts 322°
2026-04-30 18:18 45.78044 -111.16042 4459 ft 16 kts 359°
2026-04-30 18:19 45.78144 -111.16134 4457 ft 18 kts 316°
2026-04-30 18:19 45.78247 -111.16277 4455 ft 21 kts 316°
2026-04-30 18:19 45.78357 -111.16427 4452 ft 22 kts 317°
2026-04-30 18:19 45.78469 -111.16585 4449 ft 23 kts 314°
2026-04-30 18:20 45.78585 -111.16749 4445 ft 23 kts 317°
2026-04-30 18:20 45.78713 -111.16767 4443 ft 22 kts 46°
2026-04-30 18:20 45.78762 -111.16588 4443 ft 20 kts 122°
2026-04-30 18:20 45.78535 -111.16264 4449 ft 83 kts 136°
2026-04-30 18:21 45.77949 -111.15450 4461 ft 148 kts 136°
2026-04-30 18:21 45.77103 -111.14282 4711 ft 179 kts 136°
2026-04-30 18:21 45.76182 -111.13151 5449 ft 179 kts 152°
2026-04-30 18:21 45.74983 -111.13000 6205 ft 179 kts 199°
2026-04-30 18:22 45.73875 -111.13799 6717 ft 188 kts 212°
2026-04-30 18:22 45.71420 -111.15873 7593 ft 222 kts 209°
2026-04-30 18:22 45.70002 -111.16909 8032 ft 239 kts 207°
2026-04-30 18:23 45.68427 -111.17991 8400 ft 262 kts 207°
2026-04-30 18:23 45.66902 -111.19450 8809 ft 268 kts 230°
2026-04-30 18:23 45.66038 -111.21770 8978 ft 267 kts 261°
2026-04-30 18:23 45.66072 -111.24400 9463 ft 272 kts 287°
2026-04-30 18:24 45.67304 -111.29701 10703 ft 299 kts 291°
2026-04-30 18:24 45.67979 -111.32630 11203 ft 318 kts 290°
2026-04-30 18:24 45.68673 -111.35719 11679 ft 337 kts 290°
2026-04-30 18:25 45.69390 -111.38962 12138 ft 354 kts 289°
2026-04-30 18:25 45.70886 -111.45773 13731 ft 366 kts 290°
2026-04-30 18:25 45.71649 -111.49265 14551 ft 370 kts 290°
2026-04-30 18:26 45.73186 -111.56315 16144 ft 378 kts 290°
2026-04-30 18:26 45.73964 -111.59882 16905 ft 381 kts 290°
2026-04-30 18:26 45.74750 -111.63497 17653 ft 385 kts 290°
2026-04-30 18:27 45.76354 -111.70908 19109 ft 394 kts 290°
2026-04-30 18:27 45.77156 -111.74619 19820 ft 397 kts 290°
2026-04-30 18:28 45.78803 -111.82261 21206 ft 405 kts 290°
2026-04-30 18:28 45.79625 -111.86093 21865 ft 409 kts 290°
2026-04-30 18:28 45.81308 -111.93955 23120 ft 417 kts 290°
2026-04-30 18:29 45.82152 -111.97915 23722 ft 420 kts 290°
2026-04-30 18:29 45.84734 -112.10068 25341 ft 432 kts 290°
2026-04-30 18:30 45.86974 -112.18047 26287 ft 434 kts 302°
2026-04-30 18:30 45.90252 -112.25388 27159 ft 437 kts 309°
2026-04-30 18:31 45.92000 -112.28961 27571 ft 441 kts 309°
2026-04-30 18:31 45.95562 -112.36234 28286 ft 449 kts 310°
2026-04-30 18:32 45.99154 -112.43621 29020 ft 454 kts 310°
2026-04-30 18:32 46.00971 -112.47382 29438 ft 455 kts 310°
2026-04-30 18:32 46.04572 -112.54850 30389 ft 453 kts 310°
2026-04-30 18:33 46.06343 -112.58533 30810 ft 453 kts 311°
2026-04-30 18:33 46.09952 -112.66037 31563 ft 453 kts 310°
2026-04-30 18:33 46.11755 -112.69795 31969 ft 453 kts 310°
2026-04-30 18:34 46.13526 -112.73492 32363 ft 452 kts 310°
2026-04-30 18:34 46.17079 -112.80931 33146 ft 449 kts 310°
2026-04-30 18:34 46.18847 -112.84634 33523 ft 448 kts 309°
2026-04-30 18:35 46.20612 -112.88340 33927 ft 446 kts 309°
2026-04-30 18:35 46.22361 -112.92020 34270 ft 444 kts 309°
2026-04-30 18:35 46.24102 -112.95689 34581 ft 443 kts 309°
2026-04-30 18:36 46.27587 -113.03048 35125 ft 442 kts 309°
2026-04-30 18:36 46.29322 -113.06715 35402 ft 441 kts 309°
2026-04-30 18:36 46.32759 -113.13992 35936 ft 438 kts 309°
2026-04-30 18:37 46.34470 -113.17623 36183 ft 437 kts 309°
2026-04-30 18:37 46.36187 -113.21272 36424 ft 436 kts 309°
2026-04-30 18:37 46.37883 -113.24886 36631 ft 436 kts 308°
2026-04-30 18:37 46.39582 -113.28500 36820 ft 437 kts 308°
2026-04-30 18:38 46.41293 -113.32153 37007 ft 437 kts 308°
2026-04-30 18:38 46.42982 -113.35761 37167 ft 438 kts 308°
2026-04-30 18:38 46.44702 -113.39439 37339 ft 438 kts 308°
2026-04-30 18:38 46.46407 -113.43092 37510 ft 439 kts 308°
2026-04-30 18:39 46.48114 -113.46755 37623 ft 440 kts 308°
2026-04-30 18:39 46.49821 -113.50420 37780 ft 440 kts 308°
2026-04-30 18:39 46.51548 -113.54134 37973 ft 440 kts 308°
2026-04-30 18:39 46.53248 -113.57793 38125 ft 440 kts 308°
2026-04-30 18:40 46.54955 -113.61474 38245 ft 441 kts 308°
2026-04-30 18:40 46.58388 -113.68890 38242 ft 443 kts 307°
2026-04-30 18:41 46.61809 -113.76305 38265 ft 442 kts 307°
2026-04-30 18:41 46.65230 -113.83740 38290 ft 442 kts 307°
2026-04-30 18:42 46.68662 -113.91213 38283 ft 442 kts 307°
2026-04-30 18:42 46.73767 -114.02367 38290 ft 442 kts 307°
2026-04-30 18:45 46.92419 -114.43507 38272 ft 442 kts 307°
2026-04-30 18:46 46.95779 -114.50984 38287 ft 442 kts 307°
2026-04-30 18:46 46.99160 -114.58529 38292 ft 443 kts 307°
2026-04-30 18:47 47.02526 -114.66058 38246 ft 444 kts 307°
2026-04-30 18:47 47.05917 -114.73673 38262 ft 444 kts 307°
2026-04-30 18:48 47.09277 -114.81227 38280 ft 444 kts 306°
2026-04-30 18:48 47.12643 -114.88828 38261 ft 443 kts 307°
2026-04-30 18:49 47.15991 -114.96402 38271 ft 444 kts 307°
2026-04-30 18:49 47.19326 -115.03966 38290 ft 444 kts 306°
2026-04-30 18:50 47.22687 -115.11613 38267 ft 444 kts 306°
2026-04-30 18:50 47.26022 -115.19224 38253 ft 444 kts 306°
2026-04-30 18:51 47.29365 -115.26875 38273 ft 444 kts 306°
2026-04-30 18:51 47.32695 -115.34521 38265 ft 445 kts 306°
2026-04-30 18:52 47.36030 -115.42202 38244 ft 446 kts 307°
2026-04-30 18:52 47.39351 -115.49870 38246 ft 445 kts 306°
2026-04-30 18:53 47.42488 -115.57774 38242 ft 448 kts 300°
2026-04-30 18:53 47.44834 -115.66301 38239 ft 453 kts 291°
2026-04-30 18:54 47.46302 -115.75407 38241 ft 458 kts 282°
2026-04-30 18:54 47.46986 -115.84798 38219 ft 460 kts 278°
2026-04-30 18:55 47.47541 -115.94226 38220 ft 459 kts 278°
2026-04-30 18:55 47.48372 -116.08274 38221 ft 459 kts 279°
2026-04-30 18:56 47.49202 -116.22375 38209 ft 459 kts 279°
2026-04-30 18:57 47.50011 -116.36455 38207 ft 458 kts 279°
2026-04-30 18:57 47.50542 -116.45799 38216 ft 458 kts 279°
2026-04-30 18:58 47.51324 -116.59843 38206 ft 457 kts 279°
2026-04-30 18:59 47.52089 -116.73899 38209 ft 457 kts 278°
2026-04-30 19:00 47.53077 -116.92592 38196 ft 457 kts 278°
2026-04-30 19:01 47.54035 -117.11252 38207 ft 455 kts 279°
2026-04-30 19:02 47.54732 -117.25243 38222 ft 455 kts 278°
2026-04-30 19:03 47.55631 -117.43874 38218 ft 454 kts 279°
2026-04-30 19:04 47.56535 -117.62487 38217 ft 451 kts 281°
2026-04-30 19:05 47.58272 -117.80940 38214 ft 450 kts 282°
2026-04-30 19:06 47.60013 -117.99266 38208 ft 449 kts 282°
2026-04-30 19:06 47.61290 -118.12954 38183 ft 449 kts 282°
2026-04-30 19:07 47.62548 -118.26622 38184 ft 449 kts 282°
2026-04-30 19:08 47.64211 -118.44994 38197 ft 448 kts 282°
2026-04-30 19:09 47.65431 -118.58671 38191 ft 448 kts 282°
2026-04-30 19:09 47.66235 -118.67786 38190 ft 447 kts 282°
2026-04-30 19:10 47.67823 -118.86096 38184 ft 448 kts 282°
2026-04-30 19:11 47.68988 -118.99750 38190 ft 446 kts 282°
2026-04-30 19:12 47.69761 -119.08894 38184 ft 446 kts 282°
2026-04-30 19:12 47.70520 -119.17993 38184 ft 445 kts 282°
2026-04-30 19:13 47.72018 -119.36225 38177 ft 445 kts 281°
2026-04-30 19:14 47.72750 -119.45297 38185 ft 445 kts 281°
2026-04-30 19:14 47.73488 -119.54425 38179 ft 444 kts 281°
2026-04-30 19:15 47.74217 -119.63540 38176 ft 444 kts 281°
2026-04-30 19:15 47.75286 -119.77162 38174 ft 443 kts 280°
2026-04-30 19:16 47.75988 -119.86247 38184 ft 443 kts 280°
2026-04-30 19:17 47.77028 -119.99898 38150 ft 439 kts 280°
2026-04-30 19:17 47.77695 -120.08802 36797 ft 436 kts 280°
2026-04-30 19:17 47.78032 -120.13277 35849 ft 440 kts 280°
2026-04-30 19:18 47.78599 -120.20826 34328 ft 446 kts 279°
2026-04-30 19:18 47.79056 -120.26955 33057 ft 450 kts 279°
2026-04-30 19:18 47.79394 -120.31529 31998 ft 454 kts 279°
2026-04-30 19:19 47.79739 -120.36227 30826 ft 461 kts 279°
2026-04-30 19:19 47.80083 -120.40938 29589 ft 468 kts 278°
2026-04-30 19:19 47.80778 -120.50624 27184 ft 470 kts 278°
2026-04-30 19:20 47.81111 -120.55352 25869 ft 464 kts 277°
2026-04-30 19:20 47.81444 -120.60094 24479 ft 459 kts 277°
2026-04-30 19:20 47.82080 -120.69273 23167 ft 440 kts 276°
2026-04-30 19:21 47.82388 -120.73768 22572 ft 435 kts 276°
2026-04-30 19:21 47.82993 -120.82582 21449 ft 426 kts 275°
2026-04-30 19:22 47.83589 -120.91271 20323 ft 419 kts 275°
2026-04-30 19:22 47.84445 -121.04018 18619 ft 409 kts 275°
2026-04-30 19:23 47.85262 -121.16486 16918 ft 400 kts 275°
2026-04-30 19:24 47.85796 -121.24641 15791 ft 394 kts 275°
2026-04-30 19:24 47.86056 -121.28635 15241 ft 390 kts 275°
2026-04-30 19:24 47.86569 -121.36626 14117 ft 384 kts 275°
2026-04-30 19:25 47.87310 -121.48333 12464 ft 376 kts 275°
2026-04-30 19:26 47.87778 -121.55875 11770 ft 355 kts 275°
2026-04-30 19:26 47.88211 -121.62942 11384 ft 330 kts 275°
2026-04-30 19:26 47.88414 -121.66248 11142 ft 320 kts 274°
2026-04-30 19:27 47.88131 -121.72533 10960 ft 295 kts 250°
2026-04-30 19:27 47.86649 -121.78230 10151 ft 296 kts 246°
2026-04-30 19:28 47.85872 -121.81045 9776 ft 293 kts 246°
2026-04-30 19:28 47.84355 -121.86619 9033 ft 288 kts 247°
2026-04-30 19:29 47.82880 -121.92098 8329 ft 285 kts 247°
2026-04-30 19:29 47.82145 -121.94837 7946 ft 283 kts 247°
2026-04-30 19:30 47.80001 -122.02824 6997 ft 273 kts 247°
2026-04-30 19:30 47.78601 -122.08015 6316 ft 268 kts 247°
2026-04-30 19:31 47.77227 -122.13103 5723 ft 263 kts 247°
2026-04-30 19:31 47.76554 -122.15591 5415 ft 260 kts 248°
2026-04-30 19:31 47.75226 -122.20499 4833 ft 254 kts 248°
2026-04-30 19:32 47.74565 -122.22935 4544 ft 251 kts 248°
2026-04-30 19:32 47.73918 -122.25320 4257 ft 248 kts 248°
2026-04-30 19:32 47.73281 -122.27664 3977 ft 245 kts 248°
2026-04-30 19:32 47.72643 -122.30004 3698 ft 243 kts 248°
2026-04-30 19:33 47.72017 -122.32299 3422 ft 240 kts 248°
2026-04-30 19:33 47.71407 -122.34541 3147 ft 231 kts 248°
2026-04-30 19:33 47.70817 -122.36693 2886 ft 220 kts 249°
2026-04-30 19:33 47.70253 -122.38766 2649 ft 206 kts 249°
2026-04-30 19:34 47.69747 -122.40585 2475 ft 182 kts 245°
2026-04-30 19:34 47.68958 -122.41922 2216 ft 167 kts 211°
2026-04-30 19:34 47.66918 -122.41914 2125 ft 148 kts 157°
2026-04-30 19:35 47.65996 -122.41258 2152 ft 148 kts 151°
2026-04-30 19:35 47.65092 -122.40504 2177 ft 148 kts 149°
2026-04-30 19:35 47.64200 -122.39735 2196 ft 148 kts 149°
2026-04-30 19:35 47.63312 -122.38971 2065 ft 147 kts 149°
2026-04-30 19:36 47.62428 -122.38218 1871 ft 147 kts 149°
2026-04-30 19:36 47.61558 -122.37480 1678 ft 139 kts 149°
2026-04-30 19:36 47.59935 -122.36107 1316 ft 134 kts 150°
2026-04-30 19:37 47.59130 -122.35425 1147 ft 133 kts 150°
2026-04-30 19:37 47.58328 -122.34747 975 ft 133 kts 150°
2026-04-30 19:37 47.57520 -122.34064 800 ft 133 kts 150°
2026-04-30 19:37 47.56723 -122.33391 625 ft 133 kts 150°
2026-04-30 19:38 47.55920 -122.32712 448 ft 133 kts 150°
2026-04-30 19:38 47.55113 -122.32031 272 ft 132 kts 150°
2026-04-30 19:38 47.54315 -122.31357 99 ft 132 kts 150°
2026-04-30 19:38 47.53551 -122.30711 25 ft 114 kts 150°
2026-04-30 19:39 47.53122 -122.30347 24 ft 30 kts 150°
2026-04-30 19:39 47.53050 -122.30178 25 ft 20 kts 65°
2026-04-30 19:39 47.53141 -122.30061 26 ft 18 kts 343°
2026-04-30 19:39 47.53258 -122.30128 26 ft 17 kts 359°
2026-04-30 19:40 47.53368 -122.30167 27 ft 14 kts 332°
2026-04-30 19:40 47.53385 -122.30182 27 ft 0 kts 332°